Temperature
19 19 19 19 19 19 19 19 19 19 19 19 19 20 19 19 19 19 19 19 19 19 18 18 18 18 18 18 17 17 17 17 17 17 17 17 17 17 17 17 17 16 16
19 19 19 19 19 19 19 19 19 19 19 19 19 19 19 19 19 19 19 19 19 19 19 18 18 18 18 18 18 17 17 17 17 17 17 17 17 17 17 17 17 16 16
19 19 19 19 19 19 19 19 20 19 19 19 19 19 19 19 19 19 19 19 19 19 19 18 18 18 18 18 18 18 17 17 17 17 17 17 17 17 17 17 17 17 17
19 19 19 19 19 19 20 20 19 19 19 19 19 19 20 20 19 19 19 19 19 19 19 19 18 18 18 18 18 18 17 17 17 17 17 17 17 17 17 17 17 17 17
19 19 20 20 19 19 19 19 19 19 19 19 19 20 20 20 20 19 19 19 19 19 19 19 18 18 18 18 18 18 18 17 17 17 17 17 17 17 17 16 16 16 16
19 19 20 20 19 19 19 19 20 19 19 19 19 20 20 20 20 19 19 19 19 19 19 19 18 18 18 18 18 18 18 17 17 17 17 17 17 17 17 16 16 16 16
19 19 19 19 19 19 19 19 19 19 19 19 19 19 20 20 20 19 19 19 19 19 19 18 18 18 18 18 18 18 18 17 17 17 17 17 17 17 17 16 16 16 16
19 19 19 19 19 19 19 19 19 19 19 19 19 19 19 19 20 19 19 19 19 19 19 18 18 18 18 18 18 18 18 17 17 17 17 17 17 17 17 16 16 16 16
19 19 19 19 19 19 19 19 19 19 19 19 19 19 19 19 19 19 19 19 19 19 19 18 18 18 18 18 18 17 17 17 17 17 17 17 17 16 16 16 16 16 16
19 19 19 19 19 19 19 19 19 19 19 19 19 19 19 19 19 19 19 19 19 19 19 18 18 18 18 18 17 17 17 17 17 17 17 17 17 16 16 16 16 16 16
19 19 19 19 19 19 19 19 19 19 19 19 19 19 19 19 19 19 19 19 19 19 18 18 18 18 18 17 17 17 17 17 17 17 17 17 17 16 16 16 16 16 16
19 19 19 19 19 19 18 18 18 18 18 19 19 19 19 19 19 19 19 19 18 18 18 18 18 18 18 17 17 17 17 17 17 17 17 17 17 16 16 16 16 16 16
19 19 19 19 19 18 18 18 18 18 18 18 18 19 19 19 19 19 19 19 18 18 18 18 18 18 17 17 17 17 17 17 17 17 17 17 16 16 16 16 16 16 16
19 19 19 18 18 18 18 18 18 18 18 18 18 18 18 18 19 19 19 18 18 18 18 18 18 18 17 17 17 17 17 17 17 17 17 16 16 16 16 16 16 16 16
19 19 18 18 18 18 18 18 18 18 18 18 18 18 18 18 18 18 18 18 18 18 18 18 17 17 17 17 17 16 16 16 16 16 16 16 16 16 16 16 16 16 15
18 18 18 18 17 17 17 18 17 17 17 17 17 17 17 17 17 18 18 18 18 18 17 17 17 17 17 17 16 16 16 16 16 16 16 16 16 16 16 16 16 16 15
18 18 18 17 17 17 17 17 17 17 17 17 17 17 17 17 17 17 17 17 17 17 17 17 17 17 17 17 16 16 16 16 16 16 16 16 16 16 16 16 16 15 15
18 18 17 17 17 17 17 17 17 17 17 16 16 16 17 17 17 17 17 17 17 17 17 17 16 16 16 16 16 16 16 16 16 16 16 16 16 15 15 15 15 15 15
17 17 17 17 17 17 17 17 17 16 16 16 16 16 16 16 16 16 16 16 16 16 16 16 16 16 16 16 16 16 15 15 15 16 16 16 15 15 15 15 15 15 15
17 17 17 17 17 17 17 17 17 16 16 16 16 16 16 16 16 16 16 16 16 16 16 16 16 16 16 15 15 15 15 15 15 15 15 15 15 15 15 15 15 15 15
17 17 17 17 16 17 17 17 17 16 16 16 16 16 16 16 16 15 15 15 15 15 15 15 15 15 15 15 15 15 15 15 15 15 15 15 15 15 15 15 15 15 14
17 17 16 16 16 16 16 16 16 16 16 16 16 16 15 15 15 15 15 15 15 15 15 14 14 14 14 14 14 14 14 14 14 14 14 14 14 14 15 15 15 14 14
16 16 16 16 16 16 16 16 16 16 16 15 15 15 15 15 15 15 15 14 14 14 14 14 14 14 14 14 14 14 14 14 14 14 14 14 14 14 14 14 14 14 14
16 16 16 16 16 16 16 16 16 16 15 15 15 15 15 15 15 15 14 14 14 14 14 14 14 14 14 14 14 14 14 13 14 14 14 14 14 14 14 14 14 14 14
16 16 16 15 15 15 16 16 16 15 15 15 15 15 15 15 15 14 14 14 14 14 14 14 14 14 14 14 13 13 13 13 13 13 13 13 13 13 14 14 14 14 14
16 16 16 15 15 15 15 15 15 15 15 15 15 14 14 14 14 14 14 14 13 13 13 13 13 13 13 13 13 13 13 13 12 13 13 13 13 13 13 13 13 13 13
Wind_Speed
2 2 2 2 3 3 3 2 2 2 1 1 2 2 2 3 5 6 8 13 13 12 11 10 10 9 9 8 7 7 8 8 8 7 7 6 6 6 6 6 6 6 7
1 1 2 2 2 2 3 2 2 1 1 0 1 1 2 3 5 6 8 10 12 12 11 10 10 9 9 8 7 7 7 8 8 8 7 7 6 6 6 6 6 6 6
2 1 2 2 1 2 3 2 2 1 2 2 2 2 2 3 4 6 7 9 10 11 11 10 10 10 9 8 8 7 7 7 8 8 8 7 7 7 7 6 6 7 8
2 1 1 1 1 2 1 1 1 1 0 0 1 1 1 2 4 5 6 7 8 9 11 12 11 11 10 9 8 8 7 7 8 8 8 8 8 7 7 7 7 7 7
2 1 1 0 2 1 1 1 1 0 1 1 2 1 1 2 3 4 5 6 7 9 9 11 13 12 11 9 9 8 8 7 8 8 8 7 8 8 8 7 8 8 8
2 1 1 0 1 1 1 2 1 1 1 2 3 1 1 2 2 2 3 4 6 8 9 10 10 10 11 10 9 9 8 8 8 8 8 7 7 7 8 8 8 9 9
1 0 1 1 0 0 0 1 1 2 2 1 1 1 1 2 3 2 2 2 3 5 6 9 9 8 8 10 9 8 8 8 8 8 8 7 7 6 6 6 7 8 9
1 1 1 1 1 1 0 1 1 1 2 1 1 1 1 0 0 2 2 3 3 3 3 6 7 8 8 7 8 9 9 8 7 7 7 7 7 6 5 5 5 6 8
2 0 0 0 0 1 1 1 2 2 2 2 1 1 1 0 1 1 2 2 2 2 2 3 5 7 9 8 7 8 9 8 7 7 7 7 6 6 5 5 4 5 7
2 1 1 1 1 1 0 1 1 2 2 2 2 1 1 0 1 1 1 1 2 3 2 2 3 5 7 7 8 8 9 8 7 6 6 6 6 5 5 5 4 4 5
2 2 2 1 1 1 1 1 2 2 1 3 3 2 1 1 2 2 1 1 1 1 2 2 2 3 6 7 7 8 9 8 7 6 6 5 5 5 6 5 5 5 5
2 2 2 1 0 1 1 1 1 2 2 3 4 3 2 1 1 2 2 2 2 1 2 2 2 2 4 5 7 9 9 8 7 7 6 6 5 6 6 6 6 6 5
2 2 1 1 1 1 2 1 1 2 2 3 3 3 3 3 2 1 1 2 1 1 1 1 2 2 3 5 5 8 9 9 9 8 7 6 6 5 5 6 6 6 6
1 1 1 1 1 2 2 1 2 2 2 3 4 3 3 4 2 2 1 1 1 2 1 1 1 1 2 5 6 8 7 9 9 9 8 7 6 6 5 5 5 5 5
1 1 1 1 1 1 2 2 2 2 2 2 3 3 3 3 3 3 2 1 1 2 2 1 0 1 2 4 7 7 6 8 9 10 9 8 7 7 6 5 4 4 4
1 0 1 1 1 1 1 2 2 2 1 2 2 2 2 3 3 3 2 2 1 1 2 1 2 1 0 2 5 5 7 9 11 11 11 10 9 8 7 7 6 5 5
1 0 1 1 1 1 2 2 3 2 2 2 2 2 2 2 3 3 3 2 2 1 2 2 1 0 0 0 1 3 6 7 7 11 12 12 11 10 9 9 8 7 6
1 1 1 2 2 2 2 1 2 2 2 2 1 1 2 2 2 3 3 3 2 2 1 2 2 1 1 2 2 3 3 4 6 10 12 12 12 11 11 11 10 9 8
2 2 2 2 2 1 1 1 2 2 2 1 1 1 1 1 2 2 2 2 2 3 1 2 2 1 1 1 1 3 3 2 4 6 10 12 13 13 12 12 11 10 9
2 1 1 1 1 1 0 1 2 2 2 1 1 1 0 0 1 3 2 2 2 3 2 2 2 2 1 1 1 2 3 2 3 2 4 7 10 12 12 12 12 11 11
2 1 1 1 1 1 1 1 2 2 1 1 1 1 0 1 1 1 2 2 2 2 2 3 2 2 1 1 1 2 3 2 3 2 1 3 4 5 8 10 11 11 11
1 1 1 2 2 1 1 1 1 2 1 1 1 1 1 1 1 1 0 1 1 1 2 2 2 2 2 2 2 3 2 2 2 2 1 3 3 4 5 8 11 13 13
1 1 1 1 1 1 2 2 2 2 1 1 1 1 2 1 2 1 1 2 2 3 4 2 2 3 2 2 2 4 3 3 3 3 2 4 3 3 3 6 12 14 14
1 1 1 0 1 1 1 1 2 2 2 1 1 1 0 1 2 2 1 1 2 3 4 3 2 3 3 2 3 4 5 5 4 3 2 3 3 3 4 4 11 14 15
1 1 1 1 1 1 2 1 1 2 2 2 2 1 1 2 0 1 2 3 3 3 4 4 4 5 5 5 3 2 3 3 4 3 2 2 3 3 3 2 5 12 14
1 1 1 1 2 2 3 2 0 1 1 2 1 1 1 2 2 2 2 3 4 4 4 4 4 6 6 6 6 4 3 3 3 3 2 2 2 2 3 2 1 4 7
Wind_Direction
149 144 157 190 202 190 191 215 236 234 226 233 234 192 161 145 143 146 152 164 167 170 175 180 186 189 190 187 191 197 198 197 198 201 205 207 208 208 207 210 207 203 205
146 157 168 196 221 201 204 211 208 222 241 281 301 177 151 150 145 153 157 168 174 177 179 182 186 186 188 189 192 191 196 200 200 200 201 204 206 205 205 206 210 209 205
162 186 193 204 234 221 199 203 219 195 205 202 209 222 168 153 156 163 166 171 176 181 184 181 181 184 187 189 193 198 202 202 198 201 205 207 206 204 205 209 215 215 214
165 173 196 217 257 244 228 211 220 225 273 260 226 246 182 158 168 173 174 173 174 176 180 185 184 187 190 193 195 199 201 203 201 201 204 208 209 210 214 216 220 220 215
156 178 164 265 266 285 313 299 78 33 297 298 257 202 199 188 188 188 171 174 174 167 168 180 188 192 192 194 198 201 202 204 203 204 204 206 211 214 217 221 222 218 214
169 229 160 178 305 357 11 17 7 308 268 264 283 270 219 198 200 192 181 173 177 174 169 171 178 192 194 198 203 205 205 208 208 207 207 208 211 216 220 224 224 221 218
157 296 307 153 255 49 349 360 307 275 260 231 285 301 274 204 180 182 185 168 165 172 170 166 173 174 181 198 203 207 211 214 213 211 210 212 215 219 222 228 228 228 221
238 212 206 228 168 153 259 284 280 288 277 241 241 270 292 297 306 192 171 174 172 164 169 170 172 172 175 173 194 208 216 217 215 215 213 212 215 217 220 226 226 222 212
195 265 130 300 190 189 226 241 277 265 285 287 282 255 250 258 280 223 207 181 164 162 179 157 172 169 176 168 175 198 205 210 206 210 212 213 213 211 215 217 220 213 199
184 171 175 248 277 282 313 274 260 280 279 290 274 257 255 153 211 276 286 181 190 182 190 199 177 168 165 162 166 171 186 198 202 208 209 210 210 209 212 214 217 209 202
190 175 177 218 263 286 306 301 334 314 307 294 289 270 251 233 229 215 250 244 259 208 192 200 180 164 160 162 155 166 182 193 197 203 204 205 209 212 214 218 222 218 211
194 192 176 181 244 286 284 268 296 294 296 304 310 310 305 269 252 236 242 245 239 241 221 186 160 140 158 155 158 168 178 182 188 196 198 202 208 212 214 220 225 222 221
178 172 167 148 258 271 274 288 264 282 285 290 294 305 305 293 288 270 264 266 268 257 241 183 163 151 165 139 153 167 179 183 190 195 197 200 203 208 215 221 225 224 224
135 127 141 172 239 268 280 272 276 271 271 281 291 298 301 300 315 306 280 270 275 271 266 258 178 162 153 150 168 173 183 190 195 196 197 199 201 203 209 215 221 226 231
213 125 146 175 237 281 301 288 266 285 291 283 286 287 289 301 313 315 309 280 248 271 273 271 321 208 166 160 175 188 181 192 199 201 202 203 202 201 201 206 211 218 224
356 98 175 201 231 270 285 292 279 258 282 292 284 303 302 300 308 310 310 312 293 271 283 263 241 227 162 187 189 197 190 198 204 201 202 201 202 201 197 195 201 207 214
233 214 242 237 234 248 255 266 273 271 267 281 293 307 305 312 328 323 328 326 327 344 302 295 306 26 213 280 207 219 200 192 201 206 205 202 202 198 197 200 205 208 212
216 210 228 236 234 230 242 251 271 283 272 271 286 302 317 320 331 328 330 326 329 333 320 297 296 273 231 236 216 249 237 212 206 209 202 201 200 201 200 204 207 211 215
201 216 212 218 229 229 243 272 275 283 287 288 294 311 324 341 336 326 318 325 322 321 309 283 277 273 255 249 240 267 277 270 239 208 201 202 206 205 205 206 208 212 217
194 206 221 218 195 158 279 299 293 282 296 308 313 327 352 13 316 312 313 340 333 325 308 287 269 265 272 283 265 283 288 276 278 245 206 204 212 211 210 207 210 213 217
214 208 222 228 225 202 272 301 283 260 279 303 320 350 83 89 49 350 343 354 339 326 311 302 301 324 333 334 312 285 290 284 269 270 209 220 205 212 217 216 216 214 215
212 207 220 225 234 256 342 28 334 288 273 269 281 289 216 129 126 114 35 352 336 310 317 312 312 314 304 302 296 299 308 302 289 297 281 268 226 215 212 206 212 212 215
207 204 224 215 171 77 60 58 0 301 273 276 315 312 305 17 76 19 241 230 253 251 245 261 287 291 294 292 295 301 302 294 279 282 265 263 261 251 241 227 203 206 214
225 209 228 196 120 103 78 41 328 274 271 257 253 232 169 47 1 2 312 287 265 258 248 233 238 264 267 282 280 275 279 279 260 270 263 262 261 261 262 211 202 204 214
219 200 197 173 158 126 138 110 298 250 229 229 220 197 171 157 297 339 287 278 280 269 260 253 236 243 249 251 265 296 296 286 283 277 257 255 279 286 272 233 215 216 219
230 191 152 163 178 148 146 132 356 271 262 268 215 178 153 190 218 232 264 275 279 285 288 274 257 250 242 239 228 229 256 276 284 284 295 287 290 299 288 276 253 213 225
Height
1527 1528 1528 1529 1529 1530 1530 1530 1531 1531 1530 1530 1530 1530 1531 1531 1532 1533 1534 1534 1535 1536 1536 1536 1537 1538 1538 1539 1540 1540 1541 1541 1542 1543 1543 1544 1545 1545 1546 1546 1547 1548 1549
1527 1528 1528 1529 1530 1530 1530 1531 1531 1531 1530 1530 1530 1530 1531 1531 1532 1533 1533 1534 1534 1535 1535 1535 1536 1537 1537 1538 1539 1539 1540 1540 1541 1541 1542 1542 1543 1544 1544 1545 1545 1546 1547
1527 1528 1528 1529 1530 1530 1531 1530 1531 1531 1531 1530 1530 1530 1531 1531 1531 1532 1532 1533 1533 1533 1534 1534 1535 1536 1536 1537 1537 1538 1538 1539 1539 1540 1541 1541 1541 1542 1542 1543 1543 1544 1544
1527 1527 1528 1529 1529 1530 1530 1530 1530 1530 1530 1530 1530 1530 1530 1530 1531 1531 1532 1532 1532 1532 1533 1533 1534 1534 1535 1536 1536 1537 1537 1538 1538 1539 1539 1539 1540 1540 1540 1540 1540 1541 1541
1526 1527 1528 1528 1529 1529 1529 1530 1529 1530 1530 1530 1530 1530 1530 1530 1530 1531 1531 1531 1531 1531 1532 1532 1533 1533 1534 1534 1535 1535 1536 1536 1537 1537 1537 1538 1538 1538 1538 1538 1538 1538 1538
1526 1527 1527 1528 1528 1529 1528 1529 1529 1529 1529 1529 1530 1529 1529 1529 1530 1530 1530 1530 1530 1531 1531 1531 1531 1532 1532 1532 1533 1534 1534 1535 1535 1535 1535 1536 1536 1536 1536 1535 1535 1535 1536
1526 1526 1527 1527 1527 1527 1528 1528 1528 1528 1529 1529 1529 1528 1528 1528 1529 1529 1530 1530 1530 1530 1530 1530 1530 1530 1531 1531 1532 1532 1533 1533 1533 1533 1533 1533 1533 1533 1533 1532 1531 1530 1530
1525 1526 1526 1526 1526 1526 1527 1527 1527 1527 1528 1528 1528 1528 1528 1529 1529 1529 1529 1529 1529 1529 1530 1530 1529 1529 1529 1530 1530 1530 1531 1531 1531 1531 1531 1531 1531 1531 1530 1530 1529 1526 1526
1524 1524 1525 1525 1525 1526 1526 1526 1526 1527 1527 1527 1528 1528 1528 1527 1528 1528 1528 1528 1528 1529 1529 1529 1529 1528 1528 1528 1528 1528 1529 1529 1529 1529 1529 1529 1529 1529 1528 1528 1527 1525 1525
1523 1523 1524 1524 1524 1525 1525 1525 1526 1526 1526 1526 1527 1527 1527 1527 1527 1527 1527 1527 1527 1527 1527 1527 1527 1527 1527 1526 1526 1526 1527 1527 1527 1527 1527 1526 1526 1527 1527 1526 1526 1526 1526
1522 1522 1522 1523 1523 1523 1524 1524 1524 1524 1525 1525 1525 1526 1526 1526 1526 1526 1525 1525 1525 1526 1525 1525 1526 1525 1524 1524 1524 1524 1525 1525 1525 1525 1525 1525 1524 1525 1525 1525 1525 1524 1525
1521 1521 1521 1522 1522 1522 1522 1522 1523 1523 1523 1523 1523 1524 1524 1524 1524 1524 1524 1523 1523 1524 1523 1524 1524 1523 1523 1523 1522 1523 1523 1523 1523 1523 1523 1522 1522 1523 1523 1523 1523 1523 1523
1520 1520 1520 1520 1520 1521 1521 1521 1521 1521 1521 1521 1521 1521 1522 1522 1523 1522 1522 1522 1522 1522 1522 1522 1522 1521 1521 1521 1521 1521 1521 1521 1521 1521 1521 1520 1520 1520 1521 1521 1521 1521 1521
1519 1518 1518 1518 1519 1519 1519 1519 1519 1519 1519 1519 1519 1519 1520 1520 1521 1521 1521 1521 1520 1520 1520 1520 1519 1519 1519 1518 1519 1519 1519 1519 1518 1518 1518 1518 1518 1518 1518 1518 1519 1519 1519
1517 1517 1517 1517 1517 1517 1517 1517 1517 1517 1518 1518 1517 1517 1517 1518 1518 1519 1519 1519 1519 1518 1518 1517 1517 1516 1517 1517 1517 1517 1516 1517 1516 1516 1516 1516 1516 1516 1516 1516 1516 1517 1517
1515 1515 1515 1514 1514 1515 1515 1515 1515 1515 1515 1515 1516 1515 1515 1516 1516 1516 1516 1516 1516 1516 1515 1515 1515 1514 1514 1515 1515 1515 1514 1514 1514 1514 1514 1514 1514 1514 1513 1514 1514 1514 1515
1513 1513 1513 1513 1512 1512 1513 1513 1513 1513 1513 1513 1513 1513 1513 1513 1514 1514 1514 1514 1514 1514 1513 1513 1513 1513 1512 1512 1512 1512 1512 1512 1511 1511 1511 1511 1511 1511 1511 1511 1512 1512 1512
1510 1510 1510 1510 1510 1510 1511 1511 1511 1511 1511 1511 1511 1511 1511 1511 1511 1511 1511 1511 1511 1512 1512 1511 1511 1510 1510 1510 1510 1510 1510 1509 1508 1509 1508 1508 1508 1509 1508 1509 1509 1509 1510
1508 1508 1508 1508 1508 1508 1509 1509 1509 1509 1509 1509 1509 1509 1509 1509 1509 1509 1509 1509 1509 1509 1509 1509 1508 1508 1508 1507 1507 1507 1507 1507 1507 1506 1506 1505 1506 1506 1506 1506 1506 1506 1507
1506 1506 1506 1507 1507 1507 1507 1507 1507 1507 1507 1507 1507 1507 1507 1507 1506 1506 1506 1506 1506 1506 1506 1506 1506 1506 1506 1505 1505 1505 1504 1504 1504 1504 1503 1503 1503 1503 1503 1502 1503 1503 1503
1504 1504 1505 1505 1505 1505 1505 1505 1505 1505 1505 1505 1505 1505 1505 1505 1504 1504 1504 1504 1504 1504 1503 1503 1503 1503 1503 1503 1502 1502 1502 1502 1502 1502 1501 1500 1500 1499 1499 1499 1499 1499 1500
1502 1502 1502 1503 1503 1503 1503 1503 1503 1503 1503 1503 1503 1503 1503 1502 1502 1502 1501 1501 1501 1501 1501 1501 1500 1500 1500 1500 1500 1500 1500 1500 1499 1499 1498 1498 1498 1496 1496 1496 1495 1496 1496
1499 1499 1500 1500 1500 1500 1500 1501 1501 1501 1501 1501 1501 1501 1501 1500 1500 1499 1499 1498 1498 1498 1499 1499 1498 1498 1498 1497 1497 1497 1497 1497 1496 1496 1496 1495 1494 1493 1493 1493 1493 1493 1493
1497 1497 1498 1498 1498 1498 1498 1498 1498 1499 1499 1498 1498 1498 1498 1498 1497 1497 1496 1496 1495 1495 1496 1495 1495 1495 1495 1495 1495 1494 1494 1494 1494 1493 1493 1492 1491 1490 1490 1489 1489 1489 1489
1495 1495 1496 1495 1495 1495 1495 1496 1495 1495 1496 1496 1496 1496 1495 1495 1495 1494 1494 1493 1493 1493 1493 1493 1492 1492 1492 1492 1491 1491 1490 1490 1490 1490 1490 1489 1488 1487 1486 1486 1486 1486 1485
1493 1493 1493 1493 1493 1493 1493 1493 1493 1493 1493 1493 1493 1493 1493 1492 1492 1492 1491 1491 1490 1490 1490 1489 1489 1489 1489 1489 1488 1488 1487 1487 1487 1486 1486 1486 1485 1485 1483 1482 1482 1482 1481